Time,TemperatureF,DewpointF,PressureIn,WindDirection,WindDirectionDegrees,WindSpeedMPH,WindSpeedGustMPH,Humidity,HourlyPrecipIn,Conditions,Clouds,dailyrainin,SolarRadiationWatts/m^2,SoftwareType,DateUTC
2013-05-28 00:05:00,60.4,57.0,30.13,ENE,69,0.0,0.0,87,0.00,,,0.00,0,weatherlink.com 1.10,2013-05-28 04:05:00,
2013-05-28 00:20:00,60.1,56.0,30.14,ENE,69,0.0,0.0,87,0.00,,,0.00,0,weatherlink.com 1.10,2013-05-28 04:20:00,
2013-05-28 00:35:00,59.3,56.0,30.14,ENE,69,0.0,0.0,87,0.00,,,0.00,0,weatherlink.com 1.10,2013-05-28 04:35:00,
2013-05-28 00:50:00,58.8,56.0,30.14,ENE,69,0.0,0.0,89,0.00,,,0.00,0,weatherlink.com 1.10,2013-05-28 04:50:00,
2013-05-28 01:05:00,58.4,56.0,30.14,ENE,69,0.0,2.0,91,0.00,,,0.00,0,weatherlink.com 1.10,2013-05-28 05:05:00,
2013-05-28 01:20:00,58.5,56.0,30.14,NNE,29,2.0,3.0,91,0.00,,,0.00,0,weatherlink.com 1.10,2013-05-28 05:20:00,
2013-05-28 01:35:00,59.0,57.0,30.14,NNE,16,0.0,2.0,92,0.00,,,0.00,0,weatherlink.com 1.10,2013-05-28 05:35:00,
2013-05-28 01:50:00,59.3,57.0,30.13,NNE,16,0.0,0.0,91,0.00,,,0.00,0,weatherlink.com 1.10,2013-05-28 05:50:00,
2013-05-28 02:05:00,58.7,56.0,30.13,NNE,16,0.0,1.0,91,0.00,,,0.00,0,weatherlink.com 1.10,2013-05-28 06:05:00,
2013-05-28 02:20:00,58.6,56.0,30.12,NNE,16,0.0,0.0,92,0.00,,,0.00,0,weatherlink.com 1.10,2013-05-28 06:20:00,
2013-05-28 02:35:00,58.6,57.0,30.12,NNE,16,0.0,0.0,93,0.00,,,0.00,0,weatherlink.com 1.10,2013-05-28 06:35:00,
2013-05-28 02:51:00,58.5,57.0,30.11,NNE,16,0.0,2.0,93,0.00,,,0.00,0,weatherlink.com 1.10,2013-05-28 06:51:00,
2013-05-28 03:05:00,58.9,57.0,30.11,NNE,16,2.0,2.0,92,0.00,,,0.00,0,weatherlink.com 1.10,2013-05-28 07:05:00,
2013-05-28 03:20:00,59.1,57.0,30.11,NNE,16,0.0,0.0,93,0.00,,,0.00,0,weatherlink.com 1.10,2013-05-28 07:20:00,
2013-05-28 03:35:00,59.2,58.0,30.11,NNE,22,0.0,2.0,94,0.00,,,0.00,0,weatherlink.com 1.10,2013-05-28 07:35:00,
2013-05-28 03:50:00,59.5,58.0,30.11,NNE,22,0.0,0.0,94,0.00,,,0.00,0,weatherlink.com 1.10,2013-05-28 07:50:00,
2013-05-28 04:05:00,59.6,58.0,30.11,SSE,152,2.0,3.0,93,0.00,,,0.00,0,weatherlink.com 1.10,2013-05-28 08:05:00,
2013-05-28 04:20:00,60.4,58.0,30.11,SE,137,0.0,2.0,93,0.00,,,0.00,0,weatherlink.com 1.10,2013-05-28 08:20:00,
2013-05-28 04:35:00,60.9,59.0,30.11,SE,137,0.0,1.0,92,0.00,,,0.00,0,weatherlink.com 1.10,2013-05-28 08:35:00,
2013-05-28 04:50:00,62.2,59.0,30.11,ESE,104,1.0,4.0,89,0.00,,,0.00,0,weatherlink.com 1.10,2013-05-28 08:50:00,
2013-05-28 05:06:00,65.2,59.0,30.11,ESE,112,0.0,3.0,80,0.00,,,0.00,0,weatherlink.com 1.10,2013-05-28 09:06:00,
2013-05-28 05:21:00,66.5,59.0,30.11,East,95,0.0,5.0,77,0.00,,,0.00,0,weatherlink.com 1.10,2013-05-28 09:21:00,
2013-05-28 05:36:00,66.3,59.0,30.12,East,101,1.0,3.0,77,0.00,,,0.00,0,weatherlink.com 1.10,2013-05-28 09:36:00,
2013-05-28 05:51:00,65.5,58.0,30.12,East,101,0.0,2.0,78,0.00,,,0.00,0,weatherlink.com 1.10,2013-05-28 09:51:00,
2013-05-28 06:06:00,64.5,58.0,30.13,East,101,0.0,1.0,80,0.00,,,0.00,0,weatherlink.com 1.10,2013-05-28 10:06:00,
2013-05-28 06:21:00,63.4,58.0,30.13,North,9,1.0,2.0,83,0.00,,,0.00,0,weatherlink.com 1.10,2013-05-28 10:21:00,
2013-05-28 06:36:00,63.0,59.0,30.14,North,355,3.0,3.0,86,0.00,,,0.00,7,weatherlink.com 1.10,2013-05-28 10:36:00,
2013-05-28 06:51:00,62.9,59.0,30.14,North,350,0.0,3.0,87,0.00,,,0.00,18,weatherlink.com 1.10,2013-05-28 10:51:00,
2013-05-28 07:06:00,62.4,59.0,30.14,South,171,0.0,1.0,88,0.00,,,0.00,30,weatherlink.com 1.10,2013-05-28 11:06:00,
2013-05-28 07:21:00,62.3,59.0,30.14,NE,56,0.0,1.0,88,0.00,,,0.00,58,weatherlink.com 1.10,2013-05-28 11:21:00,
2013-05-28 07:36:00,63.7,59.0,30.15,SSE,159,0.0,4.0,85,0.00,,,0.00,65,weatherlink.com 1.10,2013-05-28 11:36:00,
2013-05-28 07:51:00,65.3,61.0,30.15,North,9,0.0,3.0,86,0.00,,,0.00,86,weatherlink.com 1.10,2013-05-28 11:51:00,
2013-05-28 08:06:00,65.7,62.0,30.15,NW,306,0.0,4.0,86,0.00,,,0.00,90,weatherlink.com 1.10,2013-05-28 12:06:00,
2013-05-28 08:21:00,66.4,62.0,30.15,NNW,335,2.0,3.0,84,0.00,,,0.00,95,weatherlink.com 1.10,2013-05-28 12:21:00,
2013-05-28 08:36:00,67.4,61.0,30.15,NNW,335,3.0,4.0,79,0.00,,,0.00,114,weatherlink.com 1.10,2013-05-28 12:36:00,
2013-05-28 08:51:00,68.4,61.0,30.15,WNW,302,1.0,4.0,76,0.00,,,0.00,195,weatherlink.com 1.10,2013-05-28 12:51:00,
2013-05-28 09:06:00,70.0,61.0,30.16,NNW,332,2.0,2.0,72,0.00,,,0.00,527,weatherlink.com 1.10,2013-05-28 13:06:00,
2013-05-28 09:21:00,71.3,60.0,30.16,South,190,1.0,3.0,68,0.00,,,0.00,517,weatherlink.com 1.10,2013-05-28 13:21:00,
2013-05-28 09:36:00,70.8,59.0,30.16,NW,315,3.0,4.0,67,0.00,,,0.00,174,weatherlink.com 1.10,2013-05-28 13:36:00,
2013-05-28 09:51:00,70.1,60.0,30.16,NNW,340,3.0,5.0,71,0.00,,,0.00,329,weatherlink.com 1.10,2013-05-28 13:51:00,
2013-05-28 10:06:00,71.7,62.0,30.16,North,5,2.0,6.0,72,0.00,,,0.00,708,weatherlink.com 1.10,2013-05-28 14:06:00,
2013-05-28 10:21:00,72.3,61.0,30.16,NW,316,5.0,7.0,68,0.00,,,0.00,784,weatherlink.com 1.10,2013-05-28 14:21:00,
2013-05-28 10:36:00,72.6,61.0,30.16,North,350,1.0,5.0,66,0.00,,,0.00,745,weatherlink.com 1.10,2013-05-28 14:36:00,
2013-05-28 10:51:00,73.4,60.0,30.15,NNW,340,5.0,8.0,64,0.00,,,0.00,823,weatherlink.com 1.10,2013-05-28 14:51:00,
2013-05-28 11:06:00,74.0,62.0,30.15,NNE,13,4.0,7.0,66,0.00,,,0.00,800,weatherlink.com 1.10,2013-05-28 15:06:00,
2013-05-28 11:22:00,75.2,60.0,30.14,North,360,1.0,6.0,60,0.00,,,0.00,974,weatherlink.com 1.10,2013-05-28 15:22:00,
2013-05-28 11:37:00,75.3,61.0,30.14,NNW,344,2.0,4.0,61,0.00,,,0.00,575,weatherlink.com 1.10,2013-05-28 15:37:00,
2013-05-28 11:52:00,75.8,61.0,30.14,NW,309,3.0,6.0,61,0.00,,,0.00,928,weatherlink.com 1.10,2013-05-28 15:52:00,
2013-05-28 12:07:00,75.9,61.0,30.14,NNW,348,2.0,5.0,61,0.00,,,0.00,476,weatherlink.com 1.10,2013-05-28 16:07:00,
2013-05-28 12:22:00,76.0,62.0,30.14,NE,48,4.0,6.0,62,0.00,,,0.00,951,weatherlink.com 1.10,2013-05-28 16:22:00,
2013-05-28 12:37:00,77.2,62.0,30.13,NNW,342,5.0,7.0,59,0.00,,,0.00,990,weatherlink.com 1.10,2013-05-28 16:37:00,
2013-05-28 12:52:00,77.8,62.0,30.13,NNW,345,2.0,8.0,59,0.00,,,0.00,1000,weatherlink.com 1.10,2013-05-28 16:52:00,
2013-05-28 13:07:00,79.2,62.0,30.12,ENE,59,3.0,6.0,55,0.00,,,0.00,1002,weatherlink.com 1.10,2013-05-28 17:07:00,
2013-05-28 13:22:00,79.1,60.0,30.11,West,276,0.0,9.0,53,0.00,,,0.00,1100,weatherlink.com 1.10,2013-05-28 17:22:00,
2013-05-28 13:37:00,79.2,58.0,30.11,ESE,120,12.0,12.0,48,0.00,,,0.00,726,weatherlink.com 1.10,2013-05-28 17:37:00,
2013-05-28 13:52:00,79.1,58.0,30.11,SE,145,5.0,14.0,49,0.00,,,0.00,1030,weatherlink.com 1.10,2013-05-28 17:52:00,
2013-05-28 14:07:00,80.2,58.0,30.11,East,80,3.0,14.0,46,0.00,,,0.00,954,weatherlink.com 1.10,2013-05-28 18:07:00,
2013-05-28 14:22:00,80.0,55.0,30.10,NE,45,3.0,12.0,42,0.00,,,0.00,976,weatherlink.com 1.10,2013-05-28 18:22:00,
2013-05-28 14:37:00,80.0,56.0,30.10,SSE,151,9.0,13.0,44,0.00,,,0.00,981,weatherlink.com 1.10,2013-05-28 18:37:00,
2013-05-28 14:52:00,80.0,59.0,30.09,South,191,2.0,11.0,48,0.00,,,0.00,949,weatherlink.com 1.10,2013-05-28 18:52:00,
2013-05-28 15:07:00,80.5,59.0,30.09,ENE,75,3.0,6.0,48,0.00,,,0.00,954,weatherlink.com 1.10,2013-05-28 19:07:00,
2013-05-28 15:22:00,79.2,58.0,30.10,SSE,165,3.0,12.0,48,0.00,,,0.00,181,weatherlink.com 1.10,2013-05-28 19:22:00,
2013-05-28 15:37:00,80.3,59.0,30.09,ESE,103,3.0,10.0,48,0.00,,,0.00,900,weatherlink.com 1.10,2013-05-28 19:37:00,
2013-05-28 15:52:00,80.3,58.0,30.09,South,174,4.0,10.0,47,0.00,,,0.00,879,weatherlink.com 1.10,2013-05-28 19:52:00,
2013-05-28 16:07:00,80.1,61.0,30.09,SSW,193,5.0,11.0,52,0.00,,,0.00,831,weatherlink.com 1.10,2013-05-28 20:07:00,
2013-05-28 16:22:00,80.5,61.0,30.09,ESE,105,4.0,14.0,52,0.00,,,0.00,810,weatherlink.com 1.10,2013-05-28 20:22:00,
2013-05-28 16:37:00,79.5,60.0,30.09,ESE,103,5.0,10.0,52,0.00,,,0.00,800,weatherlink.com 1.10,2013-05-28 20:37:00,
2013-05-28 16:52:00,80.1,59.0,30.09,SE,138,6.0,10.0,48,0.00,,,0.00,693,weatherlink.com 1.10,2013-05-28 20:52:00,
2013-05-28 17:07:00,80.1,59.0,30.09,SSE,166,3.0,11.0,49,0.00,,,0.00,642,weatherlink.com 1.10,2013-05-28 21:07:00,
2013-05-28 17:22:00,79.7,58.0,30.09,SSE,160,6.0,9.0,47,0.00,,,0.00,587,weatherlink.com 1.10,2013-05-28 21:22:00,
2013-05-28 17:37:00,79.5,59.0,30.09,South,190,5.0,9.0,49,0.00,,,0.00,552,weatherlink.com 1.10,2013-05-28 21:37:00,
2013-05-28 18:07:00,79.4,58.0,30.08,SSW,194,5.0,9.0,48,0.00,,,0.00,441,weatherlink.com 1.10,2013-05-28 22:07:00,
2013-05-28 18:22:00,78.8,59.0,30.08,South,173,3.0,11.0,51,0.00,,,0.00,390,weatherlink.com 1.10,2013-05-28 22:22:00,
2013-05-28 18:37:00,78.5,59.0,30.08,South,173,6.0,11.0,51,0.00,,,0.00,336,weatherlink.com 1.10,2013-05-28 22:37:00,
2013-05-28 18:52:00,77.7,59.0,30.08,SSE,157,4.0,9.0,53,0.00,,,0.00,278,weatherlink.com 1.10,2013-05-28 22:52:00,
2013-05-28 19:07:00,77.4,59.0,30.08,SSE,153,3.0,8.0,53,0.00,,,0.00,229,weatherlink.com 1.10,2013-05-28 23:07:00,
2013-05-28 19:22:00,76.9,58.0,30.09,SSE,165,6.0,12.0,52,0.00,,,0.00,172,weatherlink.com 1.10,2013-05-28 23:22:00,
2013-05-28 19:37:00,76.3,58.0,30.09,SSE,153,6.0,9.0,54,0.00,,,0.00,113,weatherlink.com 1.10,2013-05-28 23:37:00,
2013-05-28 19:52:00,75.5,59.0,30.10,SSE,162,4.0,7.0,56,0.00,,,0.00,63,weatherlink.com 1.10,2013-05-28 23:52:00,
2013-05-28 20:07:00,74.6,59.0,30.10,SE,138,4.0,6.0,58,0.00,,,0.00,23,weatherlink.com 1.10,2013-05-29 00:07:00,
2013-05-28 20:22:00,73.7,59.0,30.10,SSE,155,0.0,6.0,61,0.00,,,0.00,12,weatherlink.com 1.10,2013-05-29 00:22:00,
2013-05-28 20:37:00,72.8,59.0,30.10,SE,141,1.0,4.0,62,0.00,,,0.00,5,weatherlink.com 1.10,2013-05-29 00:37:00,
2013-05-28 20:52:00,72.2,59.0,30.10,East,91,2.0,8.0,64,0.00,,,0.00,0,weatherlink.com 1.10,2013-05-29 00:52:00,
2013-05-28 21:07:00,71.7,60.0,30.09,SE,142,0.0,5.0,66,0.00,,,0.00,0,weatherlink.com 1.10,2013-05-29 01:07:00,
2013-05-28 21:22:00,71.2,60.0,30.09,East,87,0.0,4.0,67,0.00,,,0.00,0,weatherlink.com 1.10,2013-05-29 01:22:00,
2013-05-28 21:37:00,70.9,59.0,30.09,East,94,0.0,1.0,67,0.00,,,0.00,0,weatherlink.com 1.10,2013-05-29 01:37:00,
2013-05-28 21:52:00,70.2,60.0,30.09,East,81,1.0,5.0,70,0.00,,,0.00,0,weatherlink.com 1.10,2013-05-29 01:52:00,
2013-05-28 22:07:00,69.9,60.0,30.10,NE,43,3.0,6.0,72,0.00,,,0.00,0,weatherlink.com 1.10,2013-05-29 02:07:00,
2013-05-28 22:22:00,68.8,60.0,30.11,North,5,1.0,3.0,73,0.00,,,0.00,0,weatherlink.com 1.10,2013-05-29 02:22:00,
2013-05-28 22:37:00,67.0,60.0,30.11,North,9,1.0,2.0,78,0.00,,,0.00,0,weatherlink.com 1.10,2013-05-29 02:37:00,
2013-05-28 22:52:00,66.5,60.0,30.11,North,9,0.0,2.0,80,0.00,,,0.00,0,weatherlink.com 1.10,2013-05-29 02:52:00,
2013-05-28 23:07:00,65.5,60.0,30.11,North,9,0.0,0.0,81,0.00,,,0.00,0,weatherlink.com 1.10,2013-05-29 03:07:00,
2013-05-28 23:22:00,64.3,59.0,30.11,North,9,0.0,1.0,84,0.00,,,0.00,0,weatherlink.com 1.10,2013-05-29 03:22:00,
2013-05-28 23:37:00,63.3,59.0,30.11,North,9,0.0,2.0,87,0.00,,,0.00,0,weatherlink.com 1.10,2013-05-29 03:37:00,
2013-05-28 23:52:00,63.2,60.0,30.11,North,9,0.0,2.0,88,0.00,,,0.00,0,weatherlink.com 1.10,2013-05-29 03:52:00,